Weather History for Cambridge, United Kingdom

Change the Weather History Date:

Thursday, October 10, 2013

  Actual Average Record
Temperature  
Mean Temperature 48 °F -  
Max Temperature 51 °F 53 °F 71 °F (2005)
Min Temperature 46 °F 44 °F 39 °F (2012)
Degree Days  
Heating Degree Days 16    
Moisture  
Dew Point 40 °F    
Average Humidity 72    
Maximum Humidity 87    
Minimum Humidity 62    
Precipitation  
Precipitation 0.00 in - - ()
Sea Level Pressure  
Sea Level Pressure 30.06 in    
Wind  
Wind Speed 13 mph ()    
Max Wind Speed 17 mph    
Max Gust Speed 31 mph    
Visibility 6.2 miles    
Events Rain    
Averages and records for this station are not official NWS values.
T = Trace of Precipitation, MM = Missing Value Source: Averaged Metar Reports

Daily Weather History Graph

Daily Weather History Graph

Search for Another Location

Airport:

Trip Planner

Search our weather history database for the weather conditions in past years. The results will help you decide how hot, cold, wet, or windy it might be!

Date:

Astronomy

Oct. 10, 2013 Rise Set
Actual Time 7:15 AM BST 6:15 PM BST
Civil Twilight 6:41 AM BST 6:49 PM BST
Nautical Twilight 6:02 AM BST 7:28 PM BST
Astronomical Twilight 5:22 AM BST 8:08 PM BST
Moon 1:23 PM BST (10/10) 10:08 PM BST (10/10)
Length of Visible Light 12h 08m
Length of Day
11h 00m
Waxing Crescent, 33% of the Moon is Illuminated
Oct 10
Waxing Crescent
Oct 12
First Quarter
Oct 19
Full
Oct 27
Last Quarter
Nov 3
New

Hourly Weather History & Observations

Time (BST) Temp. Windchill Dew Point Humidity Pressure Visibility Wind Dir Wind Speed Gust Speed Precip Events Conditions
6:20 AM 46.4 °F 39.8 °F 39.2 °F 76% 29.98 in 6.2 mi Variable 16.1 mph 29.9 mph N/A   Scattered Clouds
6:50 AM 46.4 °F 40.1 °F 39.2 °F 76% 30.01 in 6.2 mi Variable 15.0 mph 29.9 mph N/A Rain Light Rain
7:20 AM 46.4 °F 40.4 °F 39.2 °F 76% 30.01 in 6.2 mi NW 13.8 mph 28.8 mph N/A Rain Light Rain
7:50 AM 46.4 °F 40.4 °F 37.4 °F 71% 30.01 in 6.2 mi NW 13.8 mph 29.9 mph N/A Rain Light Rain
8:20 AM 46.4 °F 40.4 °F 37.4 °F 71% 30.04 in 6.2 mi NW 13.8 mph 31.1 mph N/A Rain Light Rain
8:50 AM 46.4 °F 40.4 °F 37.4 °F 71% 30.04 in 6.2 mi Variable 13.8 mph 27.6 mph N/A   Partly Cloudy
9:20 AM 48.2 °F - 37.4 °F 66% 30.04 in 6.2 mi NW 12.7 mph 29.9 mph N/A   Partly Cloudy
9:50 AM 48.2 °F - 39.2 °F 71% 30.06 in 6.2 mi NW 11.5 mph 25.3 mph N/A   Scattered Clouds
10:20 AM 48.2 °F - 39.2 °F 71% 30.06 in 6.2 mi NNW 17.3 mph 31.1 mph N/A   Scattered Clouds
10:50 AM 50.0 °F - 39.2 °F 66% 30.06 in 6.2 mi Variable 15.0 mph 26.5 mph N/A   Scattered Clouds
11:20 AM 51.8 °F - 39.2 °F 62% 30.06 in 6.2 mi NNW 15.0 mph 27.6 mph N/A   Scattered Clouds
11:50 AM 51.8 °F - 39.2 °F 62% 30.06 in 6.2 mi NNW 15.0 mph 28.8 mph N/A   Scattered Clouds
12:20 PM 51.8 °F - 39.2 °F 62% 30.06 in 6.2 mi NNW 17.3 mph 31.1 mph N/A   Scattered Clouds
12:50 PM 51.8 °F - 39.2 °F 62% 30.06 in 6.2 mi NNW 15.0 mph 26.5 mph N/A   Scattered Clouds
1:20 PM 50.0 °F - 41.0 °F 71% 30.06 in 6.2 mi NNW 15.0 mph - N/A   Scattered Clouds
1:50 PM 50.0 °F - 42.8 °F 76% 30.06 in 6.2 mi NNW 15.0 mph 29.9 mph N/A Rain Light Rain
2:20 PM 48.2 °F - 44.6 °F 87% 30.06 in 6.2 mi NNW 12.7 mph 24.2 mph N/A Rain Light Rain
2:50 PM 51.8 °F - 44.6 °F 76% 30.06 in 6.2 mi Variable 13.8 mph 26.5 mph N/A Rain Rain Showers
3:20 PM 51.8 °F - 44.6 °F 76% 30.06 in 6.2 mi NNW 13.8 mph 29.9 mph N/A   Scattered Clouds
3:50 PM 50.0 °F - 41.0 °F 71% 30.06 in 6.2 mi NNW 16.1 mph 29.9 mph N/A   Scattered Clouds
4:20 PM 50.0 °F - 41.0 °F 71% 30.06 in 6.2 mi NNW 17.3 mph 29.9 mph N/A   Scattered Clouds
4:50 PM 50.0 °F - 41.0 °F 71% 30.09 in 6.2 mi NNW 17.3 mph 28.8 mph N/A Rain Light Rain Showers
5:20 PM 50.0 °F - 42.8 °F 76% 30.06 in 6.2 mi North 11.5 mph - N/A Rain Light Rain Showers
5:50 PM 50.0 °F - 41.0 °F 71% 30.06 in 6.2 mi NNW 11.5 mph - N/A   Mostly Cloudy
6:20 PM 48.2 °F - 41.0 °F 76% 30.09 in 6.2 mi NNW 15.0 mph - N/A   Mostly Cloudy
6:50 PM 48.2 °F - 41.0 °F 76% 30.09 in 6.2 mi NNW 12.7 mph - N/A   Scattered Clouds
7:20 PM 48.2 °F - 41.0 °F 76% 30.09 in 6.2 mi NW 12.7 mph 25.3 mph N/A   Partly Cloudy
7:50 PM 48.2 °F - 41.0 °F 76% 30.09 in 6.2 mi NNW 12.7 mph 25.3 mph N/A   Mostly Cloudy
8:20 PM 48.2 °F - 41.0 °F 76% 30.09 in 6.2 mi NW 12.7 mph 24.2 mph N/A   Scattered Clouds
8:50 PM 46.4 °F 40.4 °F 39.2 °F 76% 30.06 in 6.2 mi NW 13.8 mph 29.9 mph N/A   Scattered Clouds